SCP
-0 0 -0 -0 -0 -0 -0 0 0 0 -0 0 0 0 0 0 -0 -0 -0 -0 -0 -0 -0 -0 -0 0 0 0 0 0 0 0 0 0 0 0 0 0 0 0 0 -0 0
-0 -0 -0 -0 -0 -0 -0 0 -0 -0 -0 0 0 0 0 0 -0 -0 -0 -0 -0 -0 -0 -0 -0 0 0 0 0 0 0 0 0 0 0 0 -0 0 0 0 0 0 0
-0 -0 -0 -0 -0 -0 -0 -0 -0 -0 -0 0 0 0 0 0 -0 -0 -0 -0 -0 -0 -0 -0 -0 -0 0 0 0 0 0 0 0 0 0 0 0 0 0 0 0 0 0
-0 -0 0 -0 -0 -0 -0 -0 -0 0 0 0 0 0 0 0 0 -0 -0 -0 -0 -0 -0 -0 -0 -0 -0 0 0 0 0 0 0 0 0 0 0 0 0 0 0 0 0
-0 -0 -0 -0 -0 -0 -0 -0 -0 -0 -0 0 0 0 0 0 0 0 0 -0 -0 -0 -0 -0 -0 -0 -0 -0 -0 0 0 0 0 0 0 0 0 0 0 0 0 0 0
-0 0 -0 -0 -0 -0 -0 -0 -0 -0 0 0 0 0 0 0 0 0 0 0 -0 -0 -0 -0 -0 -0 -0 -0 -0 0 0 0 0 0 0 0 0 0 0 0 0 0 0
-0 0 0 -0 -0 -0 -0 -0 -0 -0 0 0 0 0 0 0 0 0 0 0 0 0 0 0 0 0 0 0 0 0 0 0 0 0 0 0 0 0 0 0 0 0 0
0 0 0 0 -0 -0 -0 -0 -0 0 0 0 0 0 0 0 0 0 0 0 0 0 0 0 0 0 0 0 0 0 0 0 0 0 0 0 0 0 0 0 0 0 0
0 0 0 0 0 0 0 0 0 0 0 0 0 0 0 0 1 1 0 0 0 0 0 0 0 0 0 0 0 0 0 0 0 0 0 0 0 1 1 0 0 0 0
-0 0 0 0 0 0 0 0 0 0 0 0 0 0 0 0 0 0 0 0 0 1 1 0 0 0 0 0 0 0 0 0 0 0 0 0 0 0 0 0 0 0 0
0 0 0 0 0 0 0 0 0 0 0 0 0 1 0 0 0 0 0 0 0 1 0 0 0 0 0 0 0 0 0 0 0 0 0 0 0 0 0 0 0 0 0
-0 -0 -0 -0 -1 -0 -0 0 0 0 0 1 0 0 0 0 0 0 0 0 0 0 0 0 0 0 0 0 0 0 0 0 0 0 0 0 0 0 0 0 0 0 1
0 0 0 0 0 0 -0 -0 -0 0 0 0 0 0 0 0 0 0 0 0 0 0 0 0 0 0 0 0 0 0 0 0 0 0 0 0 0 0 0 0 1 1 1
1 0 1 1 0 0 0 -0 -0 -0 0 0 0 0 0 0 0 0 0 0 0 0 0 0 0 0 0 0 0 0 0 -0 -0 0 0 0 0 0 0 0 1 1 1
1 0 0 1 0 0 0 0 -0 -0 -0 0 0 0 0 0 0 0 0 0 0 0 0 0 0 0 0 0 0 -0 -0 -0 -0 0 0 0 0 0 0 0 0 1 1
0 0 0 1 0 0 0 -0 -0 -0 -0 0 0 0 0 0 0 0 0 0 0 0 0 0 0 0 0 0 0 0 0 0 0 0 0 0 0 0 0 0 0 0 1
0 0 0 0 0 0 0 0 -0 -0 0 0 0 0 0 0 0 0 0 0 0 0 0 0 0 0 0 0 0 0 0 0 0 0 0 0 0 0 0 0 0 0 0
0 0 0 0 0 0 0 -0 -0 -0 0 0 0 0 0 0 0 0 0 0 0 0 0 0 0 0 0 0 0 0 0 0 -0 0 0 0 0 0 0 0 0 0 0
0 0 0 0 0 0 0 -0 0 0 0 0 0 0 0 0 0 0 0 0 0 0 0 0 0 0 0 0 0 0 0 0 0 0 0 0 0 0 0 0 0 0 0
0 0 0 0 0 0 0 0 0 0 0 0 0 0 0 0 0 0 0 0 0 0 0 0 0 0 0 0 0 0 0 0 0 0 0 0 0 0 0 0 0 0 2
0 0 0 0 0 0 0 0 0 0 0 0 0 0 0 0 0 0 0 0 0 0 0 0 0 0 0 0 0 0 0 0 0 0 0 0 0 0 0 0 0 0 0
0 0 0 0 0 0 0 0 0 0 0 0 0 0 0 0 0 0 0 0 0 0 0 0 0 0 0 0 0 0 0 0 0 0 0 0 0 0 0 0 0 0 0
0 0 0 0 0 0 0 0 0 0 0 0 0 0 0 0 0 0 0 0 0 0 0 0 0 0 0 0 0 0 0 0 0 0 0 0 0 0 0 0 0 0 0
0 0 0 0 0 0 0 -0 -0 0 0 0 0 0 0 0 0 0 0 0 0 0 0 0 0 0 0 0 0 0 0 0 0 0 0 0 0 0 0 0 0 0 0
0 0 0 0 0 0 0 0 0 0 -0 0 0 0 0 0 0 0 0 0 0 0 0 0 0 0 0 0 0 0 0 0 0 0 0 0 0 0 0 -0 0 0 0
0 0 0 0 0 0 0 0 0 0 0 0 0 0 0 0 0 0 0 0 0 0 0 0 0 0 0 0 0 0 0 0 0 0 0 0 0 0 0 0 0 0 0
Wind_Speed_500mb
38 34 32 29 25 21 18 15 15 16 18 20 21 24 27 29 30 31 32 32 33 33 33 33 30 27 24 21 18 15 12 10 7 4 4 6 12 15 15 18 19 16 12
37 35 31 28 24 20 16 13 14 15 16 18 20 23 25 28 29 29 30 31 32 32 33 34 32 29 26 21 17 14 13 11 8 2 1 3 3 6 10 12 17 17 14
35 34 31 25 22 18 13 11 11 12 14 15 17 20 23 24 24 25 26 28 29 32 34 34 35 32 29 24 17 15 12 10 7 2 5 8 6 5 1 5 10 15 15
30 31 27 25 22 18 13 10 9 9 9 11 14 17 19 19 19 20 22 25 27 27 31 34 36 34 31 28 21 18 18 15 9 4 7 6 8 15 9 0 1 9 13
32 28 25 24 22 18 13 10 9 9 9 10 12 14 15 15 15 16 17 19 21 23 23 28 32 31 26 23 19 17 20 22 17 10 8 11 11 7 13 7 7 6 9
30 24 22 21 20 18 13 10 9 9 11 11 11 12 13 13 13 13 13 14 16 17 17 17 21 24 28 28 22 22 25 26 17 16 13 12 10 14 12 14 14 11 8
25 21 19 18 19 17 13 11 11 12 12 11 12 14 17 15 12 11 8 8 8 9 12 14 13 19 26 33 35 28 25 23 17 13 14 10 12 16 13 16 20 17 12
20 16 17 19 19 17 16 14 15 15 13 15 16 17 19 15 9 13 7 3 2 6 9 11 13 18 25 35 41 38 31 25 21 14 13 8 7 15 20 21 22 21 17
21 12 15 18 20 20 18 17 16 15 15 17 16 18 20 19 18 15 13 12 9 12 15 18 18 22 30 39 47 40 36 30 30 24 16 14 10 9 18 18 21 21 20
24 15 15 22 23 21 18 19 19 17 16 17 16 19 23 25 24 24 21 18 17 21 23 23 22 29 35 42 46 40 37 33 30 33 29 23 21 18 19 19 19 20 18
23 17 18 23 26 25 19 20 21 18 19 17 16 22 24 28 30 33 30 27 25 29 29 26 25 31 37 45 43 41 35 31 31 30 29 29 31 33 31 29 28 26 25
29 32 28 35 41 38 37 28 24 22 21 24 19 26 27 30 30 39 41 36 34 35 30 26 30 33 45 43 43 41 34 31 31 34 31 30 26 31 38 35 33 32 30
33 29 20 41 41 48 49 41 34 31 26 28 28 34 34 37 43 40 34 31 29 26 31 30 33 37 39 39 43 44 42 41 41 38 40 40 38 34 36 44 43 41 37
30 23 39 55 56 49 60 44 38 40 37 33 36 36 36 38 34 29 28 27 29 25 27 30 32 37 35 39 43 45 47 51 53 49 44 45 50 47 41 43 50 46 46
17 28 52 62 66 46 25 31 44 34 36 40 34 35 33 32 29 36 35 35 33 32 30 35 35 35 34 39 44 48 49 53 57 55 48 46 42 53 53 47 52 50 52
7 29 37 56 32 26 39 41 26 21 29 33 37 31 27 27 33 39 39 41 40 39 36 37 37 37 39 40 45 49 52 54 58 57 54 53 51 48 52 55 53 56 58
13 39 54 32 22 28 41 29 24 25 30 32 27 26 25 29 32 36 43 47 46 43 42 45 40 43 45 48 47 49 51 57 61 55 53 54 55 49 52 58 57 57 62
20 38 40 23 12 29 27 28 24 26 26 21 19 21 25 30 37 41 46 52 50 50 51 52 46 48 53 58 57 57 60 64 62 51 51 57 57 55 44 56 59 59 56
31 36 26 17 8 17 10 13 19 18 22 20 22 23 26 33 39 45 53 56 54 56 58 59 55 58 61 60 57 59 59 66 62 51 48 46 53 50 39 47 59 57 55
26 24 26 17 12 17 23 21 23 23 22 23 25 31 32 38 45 54 54 50 54 59 58 53 58 58 60 55 55 58 57 61 58 42 41 32 37 40 27 29 36 46 52
24 22 21 15 22 27 27 30 32 33 25 30 31 34 42 46 52 56 55 49 53 54 54 59 59 52 51 49 57 64 59 57 28 40 31 27 20 24 17 19 27 35 42
21 28 25 23 32 41 34 22 27 30 31 36 42 44 47 51 52 49 46 48 47 45 46 44 44 48 59 48 45 50 35 31 31 20 35 26 22 15 12 14 21 35 46
30 33 29 17 25 38 25 28 26 23 32 35 43 46 43 41 36 35 33 34 37 40 42 46 48 49 52 43 37 30 20 16 31 40 19 19 24 19 20 15 17 16 33
33 33 27 27 39 39 37 42 43 38 36 38 37 37 28 28 26 30 36 38 39 38 39 38 39 42 48 45 38 37 33 35 33 29 23 23 24 26 23 28 14 12 25
30 29 29 31 27 38 40 42 41 40 37 35 32 29 31 34 39 42 42 35 37 43 42 42 41 38 37 37 34 38 52 49 44 48 42 33 30 25 26 23 33 24 12
26 28 33 36 37 39 39 36 35 37 34 33 35 37 41 44 47 47 45 46 48 47 44 39 38 31 32 37 43 44 44 44 37 38 25 27 28 26 23 17 21 25 35
Wind_Direction_500mb
167 163 156 151 155 152 142 136 134 133 131 128 122 120 116 109 103 94 83 74 66 60 56 52 50 50 51 52 51 47 44 48 51 46 50 50 43 41 48 70 76 87 111
162 163 159 155 156 154 148 144 139 138 135 132 127 124 119 112 103 94 84 73 62 59 58 51 43 39 39 46 47 43 34 34 41 86 239 294 17 42 42 58 77 81 92
166 162 159 157 160 159 156 152 147 146 144 139 136 133 126 115 106 95 83 74 72 73 61 49 43 39 35 33 33 31 33 25 21 353 256 269 256 258 6 48 80 83 85
168 165 159 163 166 167 166 169 167 160 150 151 149 146 138 124 109 94 84 73 73 69 60 53 45 42 44 47 43 30 14 3 345 314 239 257 243 253 213 142 60 82 81
173 165 166 169 172 177 177 178 180 182 179 171 165 159 152 137 117 99 87 72 69 64 58 51 44 38 35 30 21 1 345 346 336 309 254 232 262 214 181 224 227 178 120
168 170 173 175 181 186 185 190 198 204 204 198 192 184 177 166 152 119 97 72 60 52 46 44 37 27 21 12 359 340 334 338 345 340 295 248 225 192 238 231 218 225 184
165 173 176 181 189 194 200 210 214 221 224 223 221 205 199 190 180 158 112 79 47 27 19 8 6 8 354 351 354 340 321 332 341 345 333 298 239 234 225 215 219 226 217
158 165 182 188 196 206 216 224 230 234 234 235 232 225 216 209 200 195 196 182 292 321 325 326 329 343 347 341 342 340 321 308 318 323 313 321 268 239 232 223 225 231 232
172 179 200 204 208 213 221 232 245 254 255 262 263 251 235 226 223 220 230 246 271 290 294 308 318 331 334 333 333 334 332 308 298 303 298 291 281 243 225 220 231 234 230
193 203 214 213 214 218 225 237 243 253 262 273 274 261 247 239 239 238 242 253 265 279 290 296 306 320 325 326 326 328 330 318 307 292 288 281 273 251 243 227 224 221 227
208 225 244 240 239 240 236 237 242 257 267 265 269 272 262 252 252 251 253 258 261 266 281 283 296 315 319 323 321 323 325 314 309 307 297 286 269 264 252 244 235 235 230
223 235 250 266 265 257 259 249 252 259 268 259 281 294 277 261 257 270 263 262 262 264 279 286 303 312 323 325 328 327 322 313 305 301 295 275 273 262 252 243 244 240 233
227 234 292 260 244 260 273 268 262 266 271 270 277 295 295 285 279 269 258 266 263 270 288 291 296 307 318 328 330 328 322 319 314 301 289 281 263 260 257 243 239 236 232
245 248 268 269 251 239 265 274 269 267 268 277 268 290 296 294 284 258 266 265 278 276 285 297 300 309 319 326 331 330 325 322 321 315 303 284 271 256 252 249 243 237 227
278 287 285 276 274 245 263 279 267 257 263 275 282 286 295 302 280 263 271 278 278 286 284 295 297 309 318 326 331 329 325 324 322 318 310 300 285 263 250 245 241 233 226
46 353 304 283 290 342 217 249 250 261 265 274 281 285 285 300 289 271 269 277 279 288 282 286 288 300 311 314 323 326 323 323 322 313 306 301 291 277 259 241 241 233 227
349 337 347 339 294 294 218 255 231 256 269 273 274 271 279 292 288 279 282 288 285 282 284 281 286 299 307 312 320 321 321 322 324 313 307 305 301 288 266 246 239 238 234
301 346 347 344 244 342 250 245 267 282 271 259 266 278 282 295 291 289 286 292 289 284 282 286 290 296 302 301 308 316 317 322 324 312 305 303 302 299 276 246 237 238 237
346 337 6 17 326 292 324 301 300 287 267 257 268 275 292 294 295 293 290 292 288 286 284 290 290 297 297 296 300 306 310 318 320 311 305 299 303 307 285 240 236 237 238
358 354 354 9 11 345 334 326 312 287 264 282 299 296 293 290 291 292 292 290 284 285 289 284 286 294 295 294 300 301 305 317 311 301 300 296 314 320 283 242 243 237 234
7 4 345 338 8 353 334 317 315 307 295 299 302 291 287 289 290 291 292 290 287 285 288 288 290 291 291 294 302 303 309 311 290 296 268 288 295 307 267 233 243 220 212
9 14 349 317 315 319 322 315 307 305 299 300 298 299 293 291 298 301 294 290 290 296 299 301 301 299 301 297 301 315 307 299 305 283 290 266 257 268 263 232 209 217 211
351 351 0 355 345 338 312 323 320 308 300 305 303 302 304 313 309 307 309 307 305 303 305 310 309 302 296 299 297 291 299 290 307 300 276 274 256 272 274 257 237 217 219
350 351 342 321 318 325 331 329 331 327 322 322 319 323 324 313 310 308 308 308 308 311 319 319 311 302 295 293 296 292 288 294 301 292 290 267 254 302 294 272 265 261 234
354 339 336 342 337 327 322 323 326 329 338 341 344 347 341 329 318 314 314 314 312 314 314 311 305 302 301 302 302 296 302 294 278 277 283 275 276 273 303 280 270 285 260
356 3 4 354 345 339 332 333 353 358 356 350 342 333 326 322 317 314 313 311 311 310 308 307 305 305 301 299 302 296 290 286 287 284 285 301 283 290 286 291 254 257 251
Wind_Speed_850mb
38 34 32 29 25 21 18 15 15 16 18 20 21 24 27 29 30 31 32 32 33 33 33 33 30 27 24 21 18 15 12 10 7 4 4 6 12 15 15 18 19 16 12
37 35 31 28 24 20 16 13 14 15 16 18 20 23 25 28 29 29 30 31 32 32 33 34 32 29 26 21 17 14 13 11 8 2 1 3 3 6 10 12 17 17 14
35 34 31 25 22 18 13 11 11 12 14 15 17 20 23 24 24 25 26 28 29 32 34 34 35 32 29 24 17 15 12 10 7 2 5 8 6 5 1 5 10 15 15
30 31 27 25 22 18 13 10 9 9 9 11 14 17 19 19 19 20 22 25 27 27 31 34 36 34 31 28 21 18 18 15 9 4 7 6 8 15 9 0 1 9 13
32 28 25 24 22 18 13 10 9 9 9 10 12 14 15 15 15 16 17 19 21 23 23 28 32 31 26 23 19 17 20 22 17 10 8 11 11 7 13 7 7 6 9
30 24 22 21 20 18 13 10 9 9 11 11 11 12 13 13 13 13 13 14 16 17 17 17 21 24 28 28 22 22 25 26 17 16 13 12 10 14 12 14 14 11 8
25 21 19 18 19 17 13 11 11 12 12 11 12 14 17 15 12 11 8 8 8 9 12 14 13 19 26 33 35 28 25 23 17 13 14 10 12 16 13 16 20 17 12
20 16 17 19 19 17 16 14 15 15 13 15 16 17 19 15 9 13 7 3 2 6 9 11 13 18 25 35 41 38 31 25 21 14 13 8 7 15 20 21 22 21 17
21 12 15 18 20 20 18 17 16 15 15 17 16 18 20 19 18 15 13 12 9 12 15 18 18 22 30 39 47 40 36 30 30 24 16 14 10 9 18 18 21 21 20
24 15 15 22 23 21 18 19 19 17 16 17 16 19 23 25 24 24 21 18 17 21 23 23 22 29 35 42 46 40 37 33 30 33 29 23 21 18 19 19 19 20 18
23 17 18 23 26 25 19 20 21 18 19 17 16 22 24 28 30 33 30 27 25 29 29 26 25 31 37 45 43 41 35 31 31 30 29 29 31 33 31 29 28 26 25
29 32 28 35 41 38 37 28 24 22 21 24 19 26 27 30 30 39 41 36 34 35 30 26 30 33 45 43 43 41 34 31 31 34 31 30 26 31 38 35 33 32 30
33 29 20 41 41 48 49 41 34 31 26 28 28 34 34 37 43 40 34 31 29 26 31 30 33 37 39 39 43 44 42 41 41 38 40 40 38 34 36 44 43 41 37
30 23 39 55 56 49 60 44 38 40 37 33 36 36 36 38 34 29 28 27 29 25 27 30 32 37 35 39 43 45 47 51 53 49 44 45 50 47 41 43 50 46 46
17 28 52 62 66 46 25 31 44 34 36 40 34 35 33 32 29 36 35 35 33 32 30 35 35 35 34 39 44 48 49 53 57 55 48 46 42 53 53 47 52 50 52
7 29 37 56 32 26 39 41 26 21 29 33 37 31 27 27 33 39 39 41 40 39 36 37 37 37 39 40 45 49 52 54 58 57 54 53 51 48 52 55 53 56 58
13 39 54 32 22 28 41 29 24 25 30 32 27 26 25 29 32 36 43 47 46 43 42 45 40 43 45 48 47 49 51 57 61 55 53 54 55 49 52 58 57 57 62
20 38 40 23 12 29 27 28 24 26 26 21 19 21 25 30 37 41 46 52 50 50 51 52 46 48 53 58 57 57 60 64 62 51 51 57 57 55 44 56 59 59 56
31 36 26 17 8 17 10 13 19 18 22 20 22 23 26 33 39 45 53 56 54 56 58 59 55 58 61 60 57 59 59 66 62 51 48 46 53 50 39 47 59 57 55
26 24 26 17 12 17 23 21 23 23 22 23 25 31 32 38 45 54 54 50 54 59 58 53 58 58 60 55 55 58 57 61 58 42 41 32 37 40 27 29 36 46 52
24 22 21 15 22 27 27 30 32 33 25 30 31 34 42 46 52 56 55 49 53 54 54 59 59 52 51 49 57 64 59 57 28 40 31 27 20 24 17 19 27 35 42
21 28 25 23 32 41 34 22 27 30 31 36 42 44 47 51 52 49 46 48 47 45 46 44 44 48 59 48 45 50 35 31 31 20 35 26 22 15 12 14 21 35 46
30 33 29 17 25 38 25 28 26 23 32 35 43 46 43 41 36 35 33 34 37 40 42 46 48 49 52 43 37 30 20 16 31 40 19 19 24 19 20 15 17 16 33
33 33 27 27 39 39 37 42 43 38 36 38 37 37 28 28 26 30 36 38 39 38 39 38 39 42 48 45 38 37 33 35 33 29 23 23 24 26 23 28 14 12 25
30 29 29 31 27 38 40 42 41 40 37 35 32 29 31 34 39 42 42 35 37 43 42 42 41 38 37 37 34 38 52 49 44 48 42 33 30 25 26 23 33 24 12
26 28 33 36 37 39 39 36 35 37 34 33 35 37 41 44 47 47 45 46 48 47 44 39 38 31 32 37 43 44 44 44 37 38 25 27 28 26 23 17 21 25 35
Wind_Direction_850mb
167 163 156 151 155 152 142 136 134 133 131 128 122 120 116 109 103 94 83 74 66 60 56 52 50 50 51 52 51 47 44 48 51 46 50 50 43 41 48 70 76 87 111
162 163 159 155 156 154 148 144 139 138 135 132 127 124 119 112 103 94 84 73 62 59 58 51 43 39 39 46 47 43 34 34 41 86 239 294 17 42 42 58 77 81 92
166 162 159 157 160 159 156 152 147 146 144 139 136 133 126 115 106 95 83 74 72 73 61 49 43 39 35 33 33 31 33 25 21 353 256 269 256 258 6 48 80 83 85
168 165 159 163 166 167 166 169 167 160 150 151 149 146 138 124 109 94 84 73 73 69 60 53 45 42 44 47 43 30 14 3 345 314 239 257 243 253 213 142 60 82 81
173 165 166 169 172 177 177 178 180 182 179 171 165 159 152 137 117 99 87 72 69 64 58 51 44 38 35 30 21 1 345 346 336 309 254 232 262 214 181 224 227 178 120
168 170 173 175 181 186 185 190 198 204 204 198 192 184 177 166 152 119 97 72 60 52 46 44 37 27 21 12 359 340 334 338 345 340 295 248 225 192 238 231 218 225 184
165 173 176 181 189 194 200 210 214 221 224 223 221 205 199 190 180 158 112 79 47 27 19 8 6 8 354 351 354 340 321 332 341 345 333 298 239 234 225 215 219 226 217
158 165 182 188 196 206 216 224 230 234 234 235 232 225 216 209 200 195 196 182 292 321 325 326 329 343 347 341 342 340 321 308 318 323 313 321 268 239 232 223 225 231 232
172 179 200 204 208 213 221 232 245 254 255 262 263 251 235 226 223 220 230 246 271 290 294 308 318 331 334 333 333 334 332 308 298 303 298 291 281 243 225 220 231 234 230
193 203 214 213 214 218 225 237 243 253 262 273 274 261 247 239 239 238 242 253 265 279 290 296 306 320 325 326 326 328 330 318 307 292 288 281 273 251 243 227 224 221 227
208 225 244 240 239 240 236 237 242 257 267 265 269 272 262 252 252 251 253 258 261 266 281 283 296 315 319 323 321 323 325 314 309 307 297 286 269 264 252 244 235 235 230
223 235 250 266 265 257 259 249 252 259 268 259 281 294 277 261 257 270 263 262 262 264 279 286 303 312 323 325 328 327 322 313 305 301 295 275 273 262 252 243 244 240 233
227 234 292 260 244 260 273 268 262 266 271 270 277 295 295 285 279 269 258 266 263 270 288 291 296 307 318 328 330 328 322 319 314 301 289 281 263 260 257 243 239 236 232
245 248 268 269 251 239 265 274 269 267 268 277 268 290 296 294 284 258 266 265 278 276 285 297 300 309 319 326 331 330 325 322 321 315 303 284 271 256 252 249 243 237 227
278 287 285 276 274 245 263 279 267 257 263 275 282 286 295 302 280 263 271 278 278 286 284 295 297 309 318 326 331 329 325 324 322 318 310 300 285 263 250 245 241 233 226
46 353 304 283 290 342 217 249 250 261 265 274 281 285 285 300 289 271 269 277 279 288 282 286 288 300 311 314 323 326 323 323 322 313 306 301 291 277 259 241 241 233 227
349 337 347 339 294 294 218 255 231 256 269 273 274 271 279 292 288 279 282 288 285 282 284 281 286 299 307 312 320 321 321 322 324 313 307 305 301 288 266 246 239 238 234
301 346 347 344 244 342 250 245 267 282 271 259 266 278 282 295 291 289 286 292 289 284 282 286 290 296 302 301 308 316 317 322 324 312 305 303 302 299 276 246 237 238 237
346 337 6 17 326 292 324 301 300 287 267 257 268 275 292 294 295 293 290 292 288 286 284 290 290 297 297 296 300 306 310 318 320 311 305 299 303 307 285 240 236 237 238
358 354 354 9 11 345 334 326 312 287 264 282 299 296 293 290 291 292 292 290 284 285 289 284 286 294 295 294 300 301 305 317 311 301 300 296 314 320 283 242 243 237 234
7 4 345 338 8 353 334 317 315 307 295 299 302 291 287 289 290 291 292 290 287 285 288 288 290 291 291 294 302 303 309 311 290 296 268 288 295 307 267 233 243 220 212
9 14 349 317 315 319 322 315 307 305 299 300 298 299 293 291 298 301 294 290 290 296 299 301 301 299 301 297 301 315 307 299 305 283 290 266 257 268 263 232 209 217 211
351 351 0 355 345 338 312 323 320 308 300 305 303 302 304 313 309 307 309 307 305 303 305 310 309 302 296 299 297 291 299 290 307 300 276 274 256 272 274 257 237 217 219
350 351 342 321 318 325 331 329 331 327 322 322 319 323 324 313 310 308 308 308 308 311 319 319 311 302 295 293 296 292 288 294 301 292 290 267 254 302 294 272 265 261 234
354 339 336 342 337 327 322 323 326 329 338 341 344 347 341 329 318 314 314 314 312 314 314 311 305 302 301 302 302 296 302 294 278 277 283 275 276 273 303 280 270 285 260
356 3 4 354 345 339 332 333 353 358 356 350 342 333 326 322 317 314 313 311 311 310 308 307 305 305 301 299 302 296 290 286 287 284 285 301 283 290 286 291 254 257 251